Regional Weather Roundup
Issued by NWS

Home | Current Version | Previous Version | Graphics & Text | Print | Product List | Glossary On
Versions: 1 2 3 4 5 6 7 8 9 10 11 12 13 14 15 16 17 18 19 20 21 22 23 24 25 26 27 28 29 30 31 32 33 34 35 36 37 38 39 40 41 42 43 44 45 46 47 48 49 50
000
ASUS43 KOAX 241510
RWRNE

WEATHER ROUNDUP FOR NEBRASKA
NATIONAL WEATHER SERVICE OMAHA NE
900 AM CST SAT FEB 24 2018

NOTES: SATELLITE DATA IS BEING USED TO AUGMENT CLOUD COVER ABOVE
       12000 FEET.
       "FAIR" INDICATES FEW OR NO CLOUDS BELOW 12,000 FEET WITH NO
       SIGNIFICANT WEATHER AND/OR OBSTRUCTIONS TO VISIBILITY.


NEZ001>004-019>022-054>056-241600-
NEBRASKA PANHANDLE

CITY           SKY/WX    TMP DP  RH WIND       PRES   REMARKS
SCOTTSBLUFF    SUNNY     16  14  92 NW13      29.79R FOG     WCI   2
ALLIANCE       MOSUNNY   19  17  92 W9        29.74F WCI   8
CHADRON        MOSUNNY   12  10  92 SW8       29.78R WCI   0
GORDON         FAIR      20  17  86 SW9       29.73F WCI   9
KIMBALL        SUNNY     18   7  62 W25       29.75S WCI   0
SIDNEY         MOSUNNY   23  15  71 W18       29.76F WCI   9
$$

NEZ057>060-069>072-079>082-241600-
SOUTHWEST NEBRASKA

CITY           SKY/WX    TMP DP  RH WIND       PRES   REMARKS
NORTH PLATTE   CLOUDY    22  19  89 S6        29.84F FOG     WCI  14
IMPERIAL       CLOUDY    23  22  96 S7        29.81S WCI  15
LEXINGTON      LGT SNOW  24  22  92 S5        29.88F WCI  18
MCCOOK         SNOW      24  24 100 SE5       29.86F VSB 1/2 WCI  18
OGALLALA       CLOUDY    24  21  88 SW6       29.80F WCI  17
$$

NEZ005>010-023>029-035>040-094-241600-
NORTH CENTRAL NEBRASKA

CITY           SKY/WX    TMP DP  RH WIND       PRES   REMARKS
VALENTINE      SNOW      18  15  88 CALM      29.81F VSB 1/2
AINSWORTH      LGT SNOW  17  16  96 SE6       29.84F WCI   8
BROKEN BOW     CLOUDY    22  18  85 SE6       29.86F WCI  14
O`NEILL        LGT SNOW  12  11  95 CALM      29.91F
ORD            CLOUDY    18  16  92 CALM      29.90F FOG
THEDFORD         N/A     20  18  93 S5        29.82F WCI  13
$$

NEZ041-046>049-061>064-073>077-083>087-241600-
SOUTH CENTRAL NEBRASKA

CITY           SKY/WX    TMP DP  RH WIND       PRES   REMARKS
GRAND ISLAND   LGT SNOW  20  18  92 NE7       29.93F VSB 1   WCI  11
AURORA         MIX PCPN N/A N/A N/A N3        29.94F
HASTINGS       LGT SNOW  20  18  92 NE6       29.91F FOG     WCI  12
HEBRON         MIX PCPN  26  26  96 NE5       29.93F WCI  21
HOLDREGE       CLOUDY    22  22  98 SE3       29.90F
KEARNEY        FLURRIES  21  19  92 SE5       29.92R WCI  15
YORK           LGT SNOW  21  21 100 CALM      29.95S VSB 3/4
$$

NEZ011>018-030>034-042>045-241600-
NORTHEAST NEBRASKA

CITY           SKY/WX    TMP DP  RH WIND       PRES   REMARKS
NORFOLK        LGT SNOW  20  19  96 VRB3      29.94F VSB 3/4
ALBION         LGT SNOW  20  18  92 CALM      29.94F
BLAIR          MIX PCPN  26  25  96 NE3       29.94F VSB 1
COLUMBUS       SNOW      21  19  92 CALM      29.96S VSB 1/2
FREMONT        MIX PCPN  24  24  99 NE3       29.95F
TEKAMAH        FRZ RAIN  24  22  91 N7        29.97F FOG     WCI  16
WAYNE          LGT SNOW  22  21  97 NE5       29.96F WCI  15
$$

NEZ050>053-065>068-078-088>093-241600-
SOUTHEAST NEBRASKA

CITY           SKY/WX    TMP DP  RH WIND       PRES   REMARKS
LINCOLN        FRZ RAIN  25  24  96 CALM      29.97F VSB 1
OMAHA EPPLEY   FRZ DRZL  27  25  92 CALM      29.96F VSB 3/4
BEATRICE       CLOUDY    29  29  98 CALM      29.93F FOG
FALLS CITY     FOG       30  29  96 E6        29.93F VSB 1   WCI  24
NEBRASKA CITY  MIX PCPN  28  28 100 CALM      29.96R VSB 1
PLATTSMOUTH    MIX PCPN  28  27  99 CALM      29.95S VSB 3/4
$$

NEZ044-045-051>053-067-241600-
OMAHA AREA

CITY           SKY/WX    TMP DP  RH WIND       PRES   REMARKS
OMAHA EPPLEY   FRZ DRZL  27  25  92 CALM      29.96F VSB 3/4
BLAIR          MIX PCPN  26  25  96 NE3       29.94F VSB 1
FREMONT        MIX PCPN  24  24  99 NE3       29.95F
MILLARD        MIX PCPN  28  26  93 CALM      29.97S VSB 3/4
OFFUTT AFB     FRZ RAIN  27  26  97 CALM      29.95F FOG
PLATTSMOUTH    MIX PCPN  28  27  99 CALM      29.95S VSB 3/4
WAHOO          MIX PCPN  25  24  94 E5        29.95F WCI  20
$$



USA.gov is the U.S. government's official web portal to all federal, state and local government web resources and services.